When you browse on this site, cookies collect data to enhance your experience and personalize the content and advertising you see.
Visit our Privacy Policy to learn more. By continuing to use the site, you agree to this use of cookies and data.
  • In Österreich
  • Länderverzeichnis
  • Für 7 Tage
  • Wassertemperatur
  • Wetterkarte
  • News
  • Widgets
  • user-avatar
    Anmelden

    Stündliche Wetter Puerto Salgar

    Heute, 23 September, Montag

    Zeit Temperatur Niederschläge Wind Luftdruck Luftfeuchtigkeit
    00:00 +25°C° 1 mm 1 m/S 747 mmHg 96%
    01:00 +23°C° 0 mm 0 m/S 747 mmHg 96%
    02:00 +23°C° 1.2 mm 0 m/S 747 mmHg 96%
    03:00 +23°C° 1.2 mm 0 m/S 747 mmHg 96%
    04:00 +23°C° 1.2 mm 0 m/S 747 mmHg 97%
    05:00 +23°C° 0.5 mm 0 m/S 747 mmHg 96%
    06:00 +23°C° 0.5 mm 0 m/S 748 mmHg 95%
    07:00 +24°C° 0 mm 0 m/S 748 mmHg 93%
    08:00 +28°C° 0 mm 1 m/S 748 mmHg 85%
    09:00 +29°C° 0 mm 1 m/S 748 mmHg 77%
    10:00 +31°C° 0 mm 1 m/S 748 mmHg 69%
    11:00 +32°C° 0 mm 1 m/S 747 mmHg 64%
    12:00 +34°C° 0 mm 2 m/S 745 mmHg 60%
    13:00 +35°C° 0 mm 2 m/S 744 mmHg 55%
    14:00 +34°C° 0.1 mm 1 m/S 744 mmHg 56%
    15:00 +34°C° 0.1 mm 1 m/S 743 mmHg 57%
    16:00 +34°C° 0.1 mm 1 m/S 743 mmHg 57%
    17:00 +32°C° 0.3 mm 1 m/S 744 mmHg 65%
    18:00 +30°C° 0.3 mm 1 m/S 744 mmHg 73%
    19:00 +28°C° 0.3 mm 1 m/S 745 mmHg 80%
    20:00 +27°C° 0.5 mm 1 m/S 745 mmHg 84%
    21:00 +27°C° 0.5 mm 1 m/S 746 mmHg 87%
    22:00 +26°C° 0.5 mm 1 m/S 747 mmHg 91%
    23:00 +24°C° 1.1 mm 0 m/S 747 mmHg 92%

    Morgen, 24 September, Dienstag

    Zeit Temperatur Niederschläge Wind Luftdruck Luftfeuchtigkeit
    00:00 +24°C° 1.1 mm 0 m/S 746 mmHg 94%
    01:00 +23°C° 1.1 mm 0 m/S 746 mmHg 96%
    02:00 +23°C° 0.4 mm 0 m/S 746 mmHg 96%
    03:00 +23°C° 0.4 mm 0 m/S 746 mmHg 96%
    04:00 +23°C° 0.4 mm 0 m/S 746 mmHg 97%
    05:00 +23°C° 0.1 mm 0 m/S 747 mmHg 96%
    06:00 +24°C° 0.1 mm 0 m/S 747 mmHg 95%
    07:00 +24°C° 0.1 mm 0 m/S 747 mmHg 94%
    08:00 +26°C° 0.2 mm 0 m/S 748 mmHg 87%
    09:00 +29°C° 0.2 mm 1 m/S 748 mmHg 80%
    10:00 +31°C° 0.2 mm 1 m/S 748 mmHg 73%
    11:00 +32°C° 0.6 mm 1 m/S 747 mmHg 71%
    12:00 +32°C° 0.6 mm 1 m/S 746 mmHg 68%
    13:00 +33°C° 0.6 mm 1 m/S 745 mmHg 65%
    14:00 +33°C° 0.2 mm 1 m/S 745 mmHg 66%
    15:00 +31°C° 0.2 mm 0 m/S 744 mmHg 66%
    16:00 +30°C° 0.2 mm 0 m/S 744 mmHg 67%
    17:00 +29°C° 0.1 mm 0 m/S 745 mmHg 72%
    18:00 +27°C° 0.1 mm 0 m/S 745 mmHg 78%
    19:00 +26°C° 0.1 mm 0 m/S 746 mmHg 83%
    20:00 +26°C° 0.1 mm 0 m/S 746 mmHg 84%
    21:00 +25°C° 0.1 mm 0 m/S 747 mmHg 86%
    22:00 +25°C° 0.1 mm 0 m/S 747 mmHg 87%
    23:00 +24°C° 1.5 mm 0 m/S 747 mmHg 89%

    übermorgen, 25 September, Mittwoch

    Zeit Temperatur Niederschläge Wind Luftdruck Luftfeuchtigkeit
    00:00 +24°C° 1.5 mm 0 m/S 747 mmHg 92%
    01:00 +24°C° 1.5 mm 0 m/S 746 mmHg 95%
    02:00 +23°C° 1.6 mm 0 m/S 746 mmHg 96%
    03:00 +23°C° 1.6 mm 0 m/S 746 mmHg 97%
    04:00 +23°C° 1.6 mm 0 m/S 746 mmHg 98%
    05:00 +23°C° 0.7 mm 0 m/S 747 mmHg 98%
    06:00 +23°C° 0.7 mm 0 m/S 747 mmHg 98%
    07:00 +23°C° 0.7 mm 0 m/S 748 mmHg 98%
    08:00 +24°C° 0.3 mm 0 m/S 748 mmHg 95%
    09:00 +25°C° 0.3 mm 0 m/S 748 mmHg 93%
    10:00 +25°C° 0.3 mm 0 m/S 748 mmHg 91%
    11:00 +27°C° 0 mm 0 m/S 747 mmHg 83%
    12:00 +30°C° 0 mm 1 m/S 746 mmHg 74%
    13:00 +32°C° 0 mm 1 m/S 744 mmHg 66%
    14:00 +32°C° 0 mm 1 m/S 744 mmHg 66%
    15:00 +32°C° 0 mm 1 m/S 744 mmHg 66%
    16:00 +32°C° 0 mm 1 m/S 743 mmHg 66%
    17:00 +31°C° 0.3 mm 1 m/S 744 mmHg 73%
    18:00 +29°C° 0.3 mm 1 m/S 744 mmHg 81%
    19:00 +27°C° 0.3 mm 1 m/S 745 mmHg 89%
    20:00 +27°C° 1.2 mm 1 m/S 745 mmHg 90%
    21:00 +25°C° 1.2 mm 0 m/S 746 mmHg 91%
    22:00 +24°C° 1.2 mm 0 m/S 747 mmHg 92%
    23:00 +24°C° 0.4 mm 0 m/S 747 mmHg 93%

    26 September, Donnerstag

    Zeit Temperatur Niederschläge Wind Luftdruck Luftfeuchtigkeit
    00:00 +24°C° 0.4 mm 0 m/S 747 mmHg 94%
    01:00 +23°C° 0.4 mm 0 m/S 746 mmHg 95%
    02:00 +23°C° 0.3 mm 0 m/S 746 mmHg 95%
    03:00 +23°C° 0.3 mm 0 m/S 746 mmHg 95%
    04:00 +23°C° 0.3 mm 0 m/S 746 mmHg 96%
    05:00 +23°C° 0.4 mm 0 m/S 746 mmHg 95%
    06:00 +23°C° 0.4 mm 0 m/S 747 mmHg 95%
    07:00 +24°C° 0.4 mm 0 m/S 747 mmHg 94%
    08:00 +26°C° 0.1 mm 0 m/S 747 mmHg 85%
    09:00 +30°C° 0.1 mm 1 m/S 747 mmHg 77%
    10:00 +32°C° 0.1 mm 1 m/S 747 mmHg 68%
    11:00 +32°C° 0.3 mm 1 m/S 746 mmHg 66%
    12:00 +33°C° 0.3 mm 1 m/S 745 mmHg 64%
    13:00 +34°C° 0.3 mm 1 m/S 744 mmHg 62%
    14:00 +34°C° 0.4 mm 1 m/S 744 mmHg 63%
    15:00 +34°C° 0.4 mm 1 m/S 744 mmHg 63%
    16:00 +34°C° 0.4 mm 1 m/S 744 mmHg 63%
    17:00 +31°C° 0.9 mm 1 m/S 744 mmHg 72%
    18:00 +29°C° 0.9 mm 1 m/S 745 mmHg 81%
    19:00 +27°C° 0.9 mm 1 m/S 745 mmHg 90%
    20:00 +27°C° 1.6 mm 1 m/S 746 mmHg 92%
    21:00 +26°C° 1.6 mm 1 m/S 746 mmHg 94%
    22:00 +26°C° 1.6 mm 1 m/S 747 mmHg 97%
    23:00 +26°C° 0.7 mm 1 m/S 747 mmHg 97%

    27 September, Freitag

    Zeit Temperatur Niederschläge Wind Luftdruck Luftfeuchtigkeit
    00:00 +25°C° 0.7 mm 1 m/S 747 mmHg 98%
    01:00 +25°C° 0.7 mm 1 m/S 747 mmHg 98%
    02:00 +25°C° 0.1 mm 1 m/S 746 mmHg 98%
    03:00 +23°C° 0.1 mm 0 m/S 746 mmHg 98%
    04:00 +22°C° 0.1 mm 0 m/S 746 mmHg 98%
    05:00 +23°C° 0 mm 0 m/S 747 mmHg 97%
    06:00 +23°C° 0 mm 0 m/S 747 mmHg 97%
    07:00 +23°C° 0 mm 0 m/S 748 mmHg 96%
    08:00 +25°C° 0 mm 0 m/S 747 mmHg 88%
    09:00 +29°C° 0 mm 1 m/S 747 mmHg 79%
    10:00 +31°C° 0 mm 1 m/S 747 mmHg 70%
    11:00 +32°C° 0.2 mm 1 m/S 746 mmHg 67%
    12:00 +33°C° 0.2 mm 1 m/S 745 mmHg 64%
    13:00 +34°C° 0.2 mm 1 m/S 744 mmHg 60%
    14:00 +33°C° 0.3 mm 1 m/S 744 mmHg 62%
    15:00 +33°C° 0.3 mm 1 m/S 744 mmHg 64%
    16:00 +33°C° 0.3 mm 1 m/S 743 mmHg 67%
    17:00 +31°C° 0.6 mm 1 m/S 744 mmHg 72%
    18:00 +29°C° 0.6 mm 1 m/S 744 mmHg 78%
    19:00 +26°C° 0.6 mm 0 m/S 745 mmHg 83%
    20:00 +27°C° 1.9 mm 1 m/S 746 mmHg 87%
    21:00 +27°C° 1.9 mm 1 m/S 746 mmHg 90%
    22:00 +26°C° 1.9 mm 1 m/S 746 mmHg 94%
    23:00 +26°C° 0.8 mm 1 m/S 746 mmHg 94%

    28 September, Samstag

    Zeit Temperatur Niederschläge Wind Luftdruck Luftfeuchtigkeit
    00:00 +26°C° 0.8 mm 1 m/S 746 mmHg 94%
    01:00 +23°C° 0.8 mm 0 m/S 746 mmHg 94%
    02:00 +23°C° 1.7 mm 0 m/S 746 mmHg 95%
    03:00 +23°C° 1.7 mm 0 m/S 746 mmHg 95%
    04:00 +22°C° 1.7 mm 0 m/S 746 mmHg 96%
    05:00 +23°C° 0.9 mm 0 m/S 746 mmHg 95%
    06:00 +23°C° 0.9 mm 0 m/S 746 mmHg 95%
    07:00 +24°C° 0.9 mm 0 m/S 747 mmHg 94%
    08:00 +25°C° 0.4 mm 0 m/S 747 mmHg 87%
    09:00 +29°C° 0.4 mm 1 m/S 747 mmHg 81%
    10:00 +31°C° 0.4 mm 1 m/S 746 mmHg 75%
    11:00 +32°C° 0.5 mm 1 m/S 745 mmHg 71%
    12:00 +33°C° 0.5 mm 1 m/S 744 mmHg 67%
    13:00 +34°C° 0.5 mm 1 m/S 743 mmHg 63%
    14:00 +34°C° 0.1 mm 1 m/S 743 mmHg 64%
    15:00 +33°C° 0.1 mm 1 m/S 743 mmHg 66%
    16:00 +33°C° 0.1 mm 1 m/S 742 mmHg 67%
    17:00 +31°C° 1.2 mm 1 m/S 743 mmHg 74%
    18:00 +29°C° 1.2 mm 1 m/S 744 mmHg 81%
    19:00 +27°C° 1.2 mm 1 m/S 744 mmHg 88%
    20:00 +27°C° 1.5 mm 1 m/S 745 mmHg 90%
    21:00 +27°C° 1.5 mm 1 m/S 745 mmHg 92%
    22:00 +26°C° 1.5 mm 1 m/S 746 mmHg 94%
    23:00 +26°C° 2.4 mm 1 m/S 746 mmHg 95%
    Mehr zeigen